Wetbulb
54.22 54.20 54.38 55.32 57.21 57.42 57.66 59.68 61.31 62.51 64.18 65.44 66.72 66.83 67.19 66.51 65.78 65.47 65.42 65.40 65.79 66.30
52.73 52.81 53.03 53.91 54.78 55.47 56.83 59.83 59.70 59.43 60.71 62.87 64.12 65.66 65.34 65.19 65.59 65.93 66.29 66.22 65.77 65.49
53.85 54.08 53.98 54.19 54.38 54.42 55.58 56.60 57.63 57.89 59.30 61.77 62.57 62.93 62.58 63.81 64.61 64.47 64.32 63.64 62.69 63.75
53.34 53.40 54.97 55.22 54.79 54.80 55.15 55.43 56.76 58.17 59.04 59.68 60.58 61.75 62.94 64.48 65.32 65.31 65.80 64.96 63.83 63.85
49.33 50.44 51.01 51.80 52.85 53.77 55.02 56.43 57.56 58.28 59.17 59.91 60.34 60.23 60.36 61.48 63.79 64.93 64.25 64.69 64.53 64.78
49.90 50.72 51.41 51.74 51.22 52.64 53.88 54.93 56.55 57.91 58.08 58.51 59.40 59.13 59.61 61.14 61.93 62.50 64.17 66.60 67.32 66.47
48.96 49.56 49.12 49.73 50.29 50.97 52.32 53.32 54.41 56.13 57.87 59.17 59.60 59.69 59.81 59.60 60.03 61.78 63.31 64.99 66.21 68.56
47.49 47.82 48.24 48.33 48.67 49.45 49.94 50.65 51.49 52.08 53.33 56.43 58.47 58.77 58.37 58.84 58.78 59.08 60.09 62.41 65.28 66.84
48.45 48.29 48.04 47.93 47.84 47.63 48.01 48.30 48.96 49.71 50.18 50.17 52.51 49.89 51.38 54.77 57.20 58.14 58.70 59.31 62.15 65.21
49.01 48.94 48.69 48.45 47.97 47.43 46.82 47.00 47.64 48.89 50.61 51.75 53.23 49.58 48.47 50.96 55.80 56.47 56.75 58.29 60.18 62.62
49.15 49.11 48.31 47.74 47.31 46.69 46.33 46.40 46.94 48.63 49.80 51.07 53.84 49.85 47.98 48.86 53.22 54.73 57.12 58.78 60.17 61.75
48.51 48.43 48.06 47.73 46.98 46.55 45.59 45.70 46.42 48.70 49.36 50.27 51.67 48.08 46.57 47.70 55.22 57.37 58.45 59.88 61.38 63.36
49.25 48.70 48.19 48.25 47.67 46.94 45.64 47.34 48.37 48.57 49.01 50.10 52.23 49.43 45.36 47.13 56.12 56.06 57.62 59.21 61.45 54.06
48.23 48.70 48.90 48.12 46.98 46.38 45.90 46.85 46.93 47.48 48.30 50.14 52.35 53.71 45.70 43.97 54.01 55.76 56.72 58.65 61.27 62.26
MSLP
1005.77 1006.34 1006.73 1006.87 1006.95 1007.16 1007.39 1007.56 1007.75 1007.87 1008.06 1008.41 1008.67 1008.74 1008.96 1008.96 1009.30 1008.58 1008.13 1008.08 1007.99 1008.72
1005.53 1006.01 1006.16 1006.19 1006.32 1006.38 1006.54 1006.84 1006.96 1007.23 1007.66 1007.93 1008.08 1008.07 1008.13 1008.23 1008.30 1007.95 1007.81 1007.83 1007.29 1008.11
1005.16 1005.39 1005.57 1005.73 1005.94 1006.06 1006.07 1006.24 1006.54 1007.06 1007.38 1007.75 1007.84 1007.49 1007.78 1007.88 1008.07 1007.92 1007.75 1007.62 1007.39 1007.63
1004.74 1004.93 1005.19 1005.42 1005.58 1005.87 1006.24 1006.59 1006.96 1006.98 1007.26 1007.46 1007.38 1007.16 1007.25 1007.35 1007.24 1007.53 1007.45 1006.92 1006.91 1006.96
1004.30 1004.73 1005.06 1005.22 1005.36 1005.61 1005.97 1006.25 1006.55 1006.88 1007.14 1006.96 1006.71 1006.75 1006.85 1006.84 1007.05 1006.95 1006.55 1006.35 1006.54 1006.16
1004.10 1004.63 1004.89 1005.02 1005.07 1005.32 1005.61 1005.93 1006.13 1006.28 1006.50 1006.58 1006.62 1006.54 1006.37 1006.52 1006.54 1006.16 1006.15 1005.80 1005.88 1005.43
1003.95 1004.03 1004.34 1004.60 1004.89 1004.98 1005.19 1005.48 1005.66 1005.82 1005.99 1006.09 1006.01 1006.08 1006.02 1005.78 1006.10 1005.66 1005.60 1005.34 1004.92 1004.47
1003.83 1004.10 1004.06 1004.33 1004.47 1004.62 1004.81 1004.95 1005.12 1005.43 1005.41 1005.56 1005.59 1005.48 1005.52 1005.45 1005.48 1005.45 1005.26 1004.84 1004.47 1004.08
1002.78 1003.27 1003.64 1003.97 1004.26 1004.37 1004.45 1004.73 1004.83 1004.95 1005.08 1005.24 1004.93 1004.64 1004.53 1004.61 1004.77 1004.85 1004.73 1004.51 1004.08 1003.52
1002.17 1002.52 1002.80 1003.00 1003.28 1003.60 1003.95 1004.19 1004.39 1004.55 1004.68 1004.70 1004.52 1004.29 1004.05 1003.82 1003.88 1004.26 1004.09 1003.89 1003.37 1002.93
1001.62 1001.66 1001.81 1002.01 1002.37 1002.93 1003.38 1003.63 1003.85 1003.93 1004.07 1004.06 1003.90 1003.69 1003.63 1003.48 1003.42 1003.71 1003.58 1003.22 1002.87 1002.57
1000.75 1000.82 1001.02 1001.33 1001.78 1002.21 1002.72 1002.93 1003.13 1003.15 1003.36 1003.54 1003.55 1003.30 1003.09 1003.11 1003.11 1003.05 1002.88 1002.44 1002.18 1001.91
999.89 999.93 1000.10 1000.22 1000.78 1001.36 1001.70 1002.06 1002.40 1002.39 1002.59 1002.84 1002.86 1002.58 1002.46 1002.53 1002.50 1002.61 1002.32 1001.93 1001.57 1001.28
998.52 998.66 998.87 999.47 999.97 1000.37 1000.92 1001.32 1001.48 1001.51 1001.70 1001.91 1001.94 1001.88 1001.69 1001.85 1001.99 1001.92 1001.80 1001.59 1001.21 1000.80
Wind_Speed
6 5 4 5 4 4 3 3 3 5 5 5 7 8 7 7 8 5 6 11 9 7
4 6 6 6 4 3 3 3 3 2 4 4 5 5 5 4 6 4 8 9 7 7
8 7 6 4 5 4 4 2 2 4 4 4 5 5 5 6 8 6 6 6 5 8
7 7 4 3 2 2 1 3 5 5 5 6 6 5 5 6 7 8 9 5 7 11
7 6 6 6 6 6 6 5 6 5 5 6 6 6 5 5 7 7 7 8 8 12
7 7 8 7 6 5 4 4 4 5 6 6 6 6 6 6 7 7 9 10 11 12
7 8 7 6 5 4 4 3 2 3 4 6 6 6 7 6 7 7 9 10 13 12
5 5 6 6 6 5 3 3 3 5 4 6 6 6 7 7 7 7 8 8 12 13
9 8 8 7 7 7 5 5 4 5 5 7 8 12 14 11 6 6 7 10 12 12
9 11 11 9 7 6 6 6 6 6 6 8 10 14 15 15 5 6 7 8 11 12
12 13 8 7 7 7 6 7 7 7 7 8 9 14 15 15 6 6 7 10 12 12
10 11 9 10 9 8 6 6 7 7 8 7 8 13 15 11 5 5 8 9 10 12
14 15 14 13 11 8 6 9 8 10 7 10 10 13 14 9 3 4 4 6 8 12
18 18 17 14 11 9 8 8 9 8 8 8 9 11 12 10 3 4 4 5 7 7
Wind_Direction
166 175 191 195 179 183 178 206 199 203 224 215 210 211 214 221 241 240 210 202 201 221
190 192 207 211 185 186 194 206 236 262 274 270 222 202 208 232 244 244 234 230 222 241
203 209 222 193 206 215 249 242 269 270 258 247 241 219 217 241 249 243 254 256 248 249
206 208 202 202 241 248 272 257 265 238 239 251 246 235 215 236 261 260 262 244 253 256
192 198 205 205 213 204 216 210 219 237 257 261 255 261 251 264 276 254 269 270 248 240
209 196 212 210 196 185 187 213 212 204 219 229 238 250 244 237 260 271 274 269 257 254
209 196 192 189 195 189 190 225 267 246 244 247 243 236 245 239 252 263 271 271 275 274
218 227 192 199 204 217 234 255 249 265 266 258 253 256 239 236 235 243 263 267 271 269
193 198 207 210 214 206 207 226 246 267 269 278 277 267 242 234 233 244 257 275 274 267
214 214 212 206 203 212 227 242 253 250 250 263 270 265 247 242 230 236 251 263 275 277
228 224 208 202 206 211 206 215 221 230 235 254 266 255 245 245 242 250 249 254 261 263
223 222 208 217 213 206 204 215 218 229 238 237 250 248 246 248 241 243 254 259 261 259
230 226 221 219 217 207 197 219 226 235 219 229 249 260 243 225 201 243 257 273 265 261
235 226 221 213 204 202 210 221 222 232 236 231 225 251 245 230 209 220 246 268 274 261